Location: Casco Millpond
(44.5581°N, 87.6111°W)
Time: 21:01:10
(UTC+00:00)

Cosmos 1850 Rocket - Pass Details

Date: 16 January 2026
Orbit: 749 x 781 km, 74.0° (Epoch: 10 February)

Event Time Altitude Azimuth Distance (km) Brightness Sun altitude
Rises 23:01:31 0° 344° (NNW) 3,260 7.2 -4.6°
Reaches altitude 10° 23:04:04 10° 353° (N) 2,333 6.3 -5.0°
Maximum altitude 23:09:02 39° 62° (ENE) 1,151 4.5 -5.8°
Drops below altitude 10° 23:14:00 10° 131° (SE) 2,330 6.3 -6.6°
Sets 23:16:31 0° 139° (SE) 3,255 7.1 -7.0°
